Location: Chiroubles
(46.1812°N, 4.6660°E)
Time: 15:43:04
(UTC+00:00)

BREEZE-M DEB (TANK) - Pass Details

Date: 15 August 2020
Orbit: 320 x 16292 km, 49.4° (Epoch: 22 September)

Event Time Altitude Azimuth Distance (km) Brightness Sun altitude
Rises 19:57:56 0° 268° (W) 2,080 6.2 -11.3°
Reaches altitude 10° 19:59:22 10° 273° (W) 1,356 5.3 -11.5°
Maximum altitude 20:01:50 58° 355° (N) 603 2.7 -11.9°
Drops below altitude 10° 20:07:33 10° 75° (ENE) 3,103 5.8 -12.7°
Sets 20:12:45 0° 79° (E) 5,530 7.0 -13.4°
